Hourly Data Report for October 22, 2014

All times are specified in Local Standard Time (LST). Add 1 hour to adjust for Daylight Saving Time where and when it is observed.

CHARLOTTETOWN A
PRINCE EDWARD ISLAND

46°17'21.000" N
63°07'09.000" W
48.50 m
8300301
71706
YYG

Download Data

Hourly Data (October 2014)
Hourly Data Report for October 22, 2014
Temp Definition
°C
Dew Point Temp Definition
°C
Rel Hum Definition
%
Wind Dir Definition
10's deg

Wind Spd Definition
km/h
Visibility Definition
km
Stn Press Definition
kPa
Hmdx Definition


Wind Chill Definition


Weather Definition


TIME
00:00 Legend Double Dagger 4.6 1.1 78 8 9 24.1 102.08     LegendNANA
01:00 Legend Double Dagger 5.7 2.9 82 8 8 24.1 102.11     LegendNANA
02:00 Legend Double Dagger 5.0 2.5 84 6 12 24.1 102.13     Mostly Cloudy
03:00 Legend Double Dagger 3.5 1.7 88 3 9 24.1 102.14     LegendNANA
04:00 Legend Double Dagger 5.3 2.5 82 5 13 24.1 102.15     LegendNANA
05:00 Legend Double Dagger 6.7 3.2 78 6 16 24.1 102.17     Mostly Cloudy
06:00 Legend Double Dagger 6.0 3.2 82 4 22 24.1 102.13     LegendNANA
07:00 Legend Double Dagger 6.4 3.9 84 6 14 24.1 102.26     LegendNANA
08:00 Legend Double Dagger 7.3 4.6 83 6 14 24.1 102.31     Mostly Cloudy
09:00 Legend Double Dagger 8.6 5.2 79 7 17 24.1 102.34     LegendNANA
10:00 Legend Double Dagger 9.6 5.6 76 6 19 24.1 102.35     LegendNANA
11:00 Legend Double Dagger 10.3 5.1 70 6 21 24.1 102.36     Mostly Cloudy
12:00 Legend Double Dagger 10.6 6.0 73 5 22 24.1 102.30     LegendNANA
13:00 Legend Double Dagger 10.5 5.9 73 5 32 24.1 102.24     LegendNANA
14:00 Legend Double Dagger 10.3 4.5 67 6 23 24.1 102.24     Mostly Cloudy
15:00 Legend Double Dagger 9.8 5.0 72 3 25 24.1 102.19     LegendNANA
16:00 Legend Double Dagger 8.9 6.4 84 4 19 24.1 102.21     LegendNANA
17:00 Legend Double Dagger 8.9 6.5 85 5 21 24.1 102.19     Cloudy
18:00 Legend Double Dagger 8.9 6.9 87 5 19 24.1 102.19     LegendNANA
19:00 Legend Double Dagger 9.0 6.8 86 5 28 24.1 102.11     LegendNANA
20:00 Legend Double Dagger 9.0 6.8 86 4 22 24.1 102.07     Cloudy
21:00 Legend Double Dagger 9.2 7.0 86 5 22 24.1 102.07     LegendNANA
22:00 Legend Double Dagger 9.4 6.9 84 5 16 24.1 102.10     LegendNANA
23:00 Legend Double Dagger 9.4 5.8 78 5 19 24.1 102.05     Cloudy

Notes on Data Quality.

Legend

  • E = Estimated
  • M = Missing
  • NA = Not Available
  • ‡ = Partner data that is not subject to review by the National Climate Archives
Date modified: